Location: Newark
(49.8348°N, 24.0280°E)
Time: 17:55:36
(UTC+00:00)

Transit 2A - Pass Details

Date: 21 January 2020
Orbit: 600 x 959 km, 66.7° (Epoch: 21 February)

Event Time Altitude Azimuth Distance (km) Brightness Sun altitude
Rises 20:08:20 0° 230° (SW) 2,884 - -48.3°
Reaches altitude 10° 20:10:40 10° 235° (SW) 1,959 - -48.6°
Maximum altitude 20:14:54 51° 312° (NW) 761 - -49.1°
Drops below altitude 10° 20:19:10 10° 29° (NNE) 1,962 - -49.7°
Sets 20:21:31 0° 35° (NE) 2,890 - -50.0°
